STARLINK-5756, 55598

Orbit data source: Space-Track

STARLINK-5756, 55598 is a payload satellite owned by SpaceX/Seattle (US) in LEO that was launched on Sun, 12 Feb 2023 UTC via an FALCON 9 launch vehicle from the Air Force Eastern Test Range (AFETR). Payload-class satellites include a variety of spacecraft equipped with specific instruments for various scientific and technological missions. These include communications satellites like Starlink; space stations such as the ISS; scientific satellites like the Hubble; Earth observation satellites from companies like Planet Labs, Umbra, and HawkEye 360; GPS; miniature CubeSats for education and research; and military/defense satellites.

Loading next visibility...
Identifier
55598, 2023-020AF
Orbit
LEO
Country
Flag of USUS
Related business
Manufacturer
SpaceX/Seattle
Mission
Partially operational Commercial Communications
Bus & Motor
STARLINK, Unknown motor
Mass
305 kg wet, ~290 kg dry
Launch date (UTC)
2023-02-12 (4 years ago)
Launch vehicle
FALCON 9
Launch site
Air Force Eastern Test Range (AFETR)
Object type
Payload
Rocket body
Debris
Shape & HBR
Box + 1 Pan, 10.1 m
Radar Cross Section
13.562 m², Large (>1 m²)

Expand to show TLE details & history
Last TLE update: 6 hours ago

TLE from 6 hours ago
0 STARLINK-5756
1 55598U 23020AF  26264.23500147 -.00007139  00000-0 -25035-3 0  9991
2 55598  43.0034 330.0277 0001291 292.2660  67.8054 15.27552758198948
Epoch: 2026-09-21T05:38Z
TLE epoch observation values (Epoch: 2026-09-21T05:38:24.127Z)
Latitude
-0.00005°
Longitude
-114.69062°
Altitude
482.572 km
Speed
7.626 km/s
True Right ascension
22h 00m 06s
True Declination
0° 00' 00"
Sunlit
Object was in full shadow at epoch
Visualization orbit readout
Latitude
Unknown
Longitude
Unknown
Altitude
Unknown
Speed
Unknown
Apparent Right ascension
Unknown
Apparent Declination
Unknown
Sunlit
N/A
Visualization observer readout
Local Sidereal Time
04:58:18
Azimuth
Unknown
Elevation
Unknown
Doppler factor
Unknown
Orbital elements
Apogee altitude
485.961 km
Perigee altitude
484.189 km
Semi-major axis
6,863.212 km
Eccentricity
0.00013
Inclination
43.0034°
RAAN
330.0277°
Arg. of periapsis
292.266°
True anomaly
67.8191°
Mean anomaly
67.8054°
Eccentric anomaly
67.81225°
Mean motion
3.81726 °/min
Orbital period
94.31 mins
BSTAR
-0.00025035
Loading maneuver chart data...
Computing Atmospheric mass density...
Loading historical data...
Loading historical data...
Loading historical data...
Loading historical data...
Loading historical data...
Loading historical data...
Loading historical data...

Documentation

Showing up to 5 results
|